Regional Weather Roundup
Issued by NWS Sioux Falls, SD

Home | Current Version | Previous Version | Graphics & Text | Print | Product List | Glossary On
Versions: 1 2 3 4 5 6 7 8 9 10 11 12 13 14 15 16 17 18 19 20 21 22 23 24 25 26 27 28 29 30 31 32 33 34 35 36 37 38 39 40 41 42 43 44 45 46 47 48 49 50
000
ASUS43 KFSD 280610
RWRFSD

WEATHER ROUNDUP FOR SE SOUTH DAKOTA/SW MINNESOTA/NW IOWA
NATIONAL WEATHER SERVICE SIOUX FALLS SD
100 AM CDT THU AUG 28 2014

NOTE: "FAIR" INDICATES FEW OR NO CLOUDS BELOW 12,000 FEET WITH NO
SIGNIFICANT WEATHER AND OR OBSTRUCTIONS TO VISIBILITY.


SDZ038>040-050-052>070-280700-
SOUTHEAST SOUTH DAKOTA

CITY           SKY/WX    TMP DP  RH WIND       PRES   REMARKS
CHAMBERLAIN    LGT RAIN  66  66  99 SE9       30.02S
6HR MIN TEMP:  66; 6HR MAX TEMP:  71; 6HR PCP:  0.03;

HURON          CLOUDY    67  64  90 SE7       30.02F
6HR MIN TEMP:  67; 6HR MAX TEMP:  74;

MADISON        CLOUDY    66  66 100 SE8       30.07F
MITCHELL       CLOUDY    69  67  93 SE9       30.02F
6HR MIN TEMP:  68; 6HR MAX TEMP:  73; 6HR PCP: TRACE;

SIOUX FALLS    MOCLDY    69  65  86 SE10      30.06F
6HR MIN TEMP:  69; 6HR MAX TEMP:  71;

WINNER         LGT RAIN  68  67  96 E10       30.00S
YANKTON        CLOUDY    68  66  94 E7        30.03F
$$

MNZ071-072-080-081-089-090-097-098-280700-
SOUTHWEST MINNESOTA

CITY           SKY/WX    TMP DP  RH WIND       PRES   REMARKS
FAIRMONT       CLOUDY    63  57  82 E7        30.11F
JACKSON        MOCLDY    63  59  88 E6        30.12S
LUVERNE        CLOUDY    68  63  83 E5        30.09F
MARSHALL       CLOUDY    64  57  77 SE8       30.09F
6HR MIN TEMP:  63; 6HR MAX TEMP:  73;

MONTEVIDEO     CLOUDY    63  61  94 S6        30.11S
PIPESTONE      CLOUDY    66  63  88 SE6       30.09F
REDWOOD FALLS  FAIR      62  58  86 SE6       30.10F
TRACY          CLOUDY    65  61  85 SE5       30.11S
WINDOM         FAIR      63  59  88 SE6       30.12S
WORTHINGTON    CLOUDY    64  63  94 SE3       30.12S
$$

IAZ001>003-012>014-020>022-031-032-NEZ013-014-SDZ071-280700-
NORTHWEST IOWA

CITY           SKY/WX    TMP DP  RH WIND       PRES   REMARKS
DENISON        CLOUDY    68  68 100 SE5       30.07S
ESTHERVILLE    MOCLDY    63  61  93 SE6       30.11S
LE MARS        DRIZZLE   68  68 100 VRB5      30.07S
ORANGE CITY    CLOUDY    70  66  88 E6        30.07F
SHELDON        MOCLDY    66  66 100 SE6       30.07F
SIOUX CITY     MOCLDY    69  67  93 E6        30.05F
6HR MIN TEMP:  69; 6HR MAX TEMP:  72;

SPENCER        FAIR      66  63  90 E6        30.09F
6HR MIN TEMP:  66; 6HR MAX TEMP:  72;

STORM LAKE     CLOUDY    66  66 100 SE7       30.10R
$$

ABBREVIATIONS USED IN REMARKS
   TC - TEMPERATURE IN CELSIUS
  WCI - WIND CHILL INDEX
   HX - HEAT INDEX
  VSB - VISIBILITY




USA.gov is the U.S. government's official web portal to all federal, state and local government web resources and services.